Location: El Gallo
(32.4380°N, 116.9347°W)
Time: 19:28:08
(UTC+00:00)

CENTAUR R/B - Pass Details

Date: 01 October 2022
Orbit: 705 x 1482 km, 63.4° (Epoch: 24 November)

Event Time Altitude Azimuth Distance (km) Brightness Sun altitude
Exits shadow 12:41:24 19° 261° (W) 1,908 3.4 -13.6°
Maximum altitude 12:44:37 32° 311° (NW) 1,505 3.2 -12.9°
Drops below altitude 10° 12:50:25 10° 13° (NNE) 2,842 5.1 -11.7°
Sets 12:53:38 0° 23° (NNE) 3,939 6.0 -11.0°
